Mount Holly, NJ

7:37 PM EST on December 12, 2019 (GMT -0500)
South Jersey Regional

Weather History for KVAY - August, 2019

Change the Weather History Date:

Wednesday, August 28, 2019

  Actual Average (WUND) Record (WUND)
Temperature  
Mean Temperature 72 °F -  
Max Temperature 80 °F - - (-1)
Min Temperature 63 °F - - (-1)
Cooling Degree Days 6    
Growing Degree Days 22 (Base 50)    
Moisture  
Dew Point 67 °F    
Average Humidity 86    
Maximum Humidity 97    
Minimum Humidity 67    
Precipitation  
Precipitation 0.01 in - - ()
Sea Level Pressure  
Sea Level Pressure 29.88 in    
Wind  
Wind Speed 2 mph (NNE)    
Max Wind Speed 6 mph    
Max Gust Speed -    
Visibility 10 miles    
Events Rain    
Averages and records for this station are not official NWS values.
T = Trace of Precipitation, MM = Missing Value Source: NWS Daily Summary

Daily Weather History Graph

Daily Weather History Graph

Search for Another Location

Airport or City:

Astronomy

Aug. 28, 2019 Rise Set
Actual Time 6:23 AM EDT 7:37 PM EDT
Civil Twilight 5:55 AM EDT 8:05 PM EDT
Nautical Twilight 5:21 AM EDT 8:38 PM EDT
Astronomical Twilight 4:46 AM EDT 9:13 PM EDT
Moon 3:52 AM EDT (8/28) 6:47 PM EDT (8/28)
Length of Visible Light 14h 10m
Length of Day
13h 14m
Waning Crescent, 5% of the Moon is Illuminated
Aug 28
Waning Crescent
Aug 30
New
Sep 5
First Quarter
Sep 14
Full
Sep 21
Last Quarter

Hourly Weather History & Observations

Time (EDT) Temp. Heat Index Dew Point Humidity Pressure Visibility Wind Dir Wind Speed Gust Speed Precip Events Conditions
12:54 AM 63.0 °F - 62.1 °F 97% 29.99 in 9.0 mi Calm Calm - N/A   Partly Cloudy
1:54 AM 64.0 °F - 62.1 °F 93% 29.97 in 10.0 mi Calm Calm - N/A   Partly Cloudy
2:16 AM 64.0 °F - 62.1 °F 93% 29.97 in 10.0 mi Calm Calm - N/A   Mostly Cloudy
2:54 AM 64.0 °F - 63.0 °F 96% 29.96 in 10.0 mi Calm Calm - N/A   Overcast
3:54 AM 64.0 °F - 62.1 °F 93% 29.94 in 10.0 mi Calm Calm - N/A   Mostly Cloudy
4:54 AM 64.9 °F - 63.0 °F 93% 29.93 in 10.0 mi North 3.5 mph - N/A   Overcast
5:06 AM 64.9 °F - 63.0 °F 93% 29.93 in 10.0 mi NNW 3.5 mph - N/A   Overcast
5:54 AM 66.0 °F - 64.0 °F 93% 29.93 in 10.0 mi ENE 3.5 mph - N/A   Overcast
6:54 AM 66.9 °F - 64.9 °F 93% 29.92 in 10.0 mi Calm Calm - N/A   Overcast
7:54 AM 68.0 °F - 64.9 °F 90% 29.92 in 10.0 mi NE 3.5 mph - N/A   Overcast
8:54 AM 72.0 °F - 66.9 °F 84% 29.91 in 10.0 mi North 4.6 mph - N/A   Overcast
9:54 AM 75.0 °F - 66.9 °F 76% 29.90 in 10.0 mi Variable 3.5 mph - N/A   Mostly Cloudy
10:54 AM 78.1 °F - 66.9 °F 68% 29.89 in 10.0 mi NE 5.8 mph - N/A   Partly Cloudy
11:54 AM 80.1 °F 82.7 °F 68.0 °F 67% 29.87 in 10.0 mi Variable 5.8 mph - N/A   Scattered Clouds
12:54 PM 79.0 °F - 69.1 °F 72% 29.85 in 10.0 mi East 4.6 mph - N/A   Overcast
1:54 PM 79.0 °F - 69.1 °F 72% 29.83 in 10.0 mi ENE 4.6 mph - N/A   Overcast
2:54 PM 79.0 °F - 69.1 °F 72% 29.82 in 10.0 mi Calm Calm - 0.00 in   Partly Cloudy
3:54 PM 78.1 °F - 70.0 °F 76% 29.81 in 10.0 mi East 3.5 mph - N/A   Scattered Clouds
4:54 PM 78.1 °F - 70.0 °F 76% 29.81 in 10.0 mi NE 3.5 mph - 0.01 in   Mostly Cloudy
5:54 PM 77.0 °F - 71.1 °F 82% 29.81 in 10.0 mi Calm Calm - 0.00 in Rain Light Rain
6:54 PM 75.9 °F - 72.0 °F 87% 29.81 in 10.0 mi Calm Calm - 0.00 in Rain Light Rain
7:34 PM 75.0 °F - 72.0 °F 90% 29.82 in 9.0 mi West 3.5 mph - 0.00 in Rain Light Rain
7:49 PM 75.2 °F - 69.8 °F 83% 29.81 in 10.0 mi Calm Calm - 0.00 in   Overcast
7:54 PM 73.9 °F - 70.0 °F 87% 29.81 in 10.0 mi Calm Calm - 0.00 in   Overcast
8:54 PM 73.9 °F - 70.0 °F 87% 29.83 in 10.0 mi NW 3.5 mph - N/A   Overcast
9:54 PM 72.0 °F - 70.0 °F 93% 29.81 in 10.0 mi Calm Calm - N/A   Clear
10:54 PM 71.1 °F - 69.1 °F 93% 29.84 in 9.0 mi Calm Calm - N/A   Clear
11:54 PM 69.1 °F - 68.0 °F 96% 29.84 in 7.0 mi Calm Calm - N/A   Mostly Cloudy